User: anonymous
Location: Albany
(35.0000°S, 118.0000°E)
Time: 02:24:17
(UTC-04:00)
Language:

Cosmos 1758 Rocket - Orbit

View from above orbital plane
View from above orbital plane
View from above satellite
View from above satellite

Ground track
Ground track

The orbit data is extracted from the following two-line orbital elements,

1 16792U 86046B   14293.80595089  .00000782  00000-0  93742-4 0  6085
2 16792 082.4862 035.2607 0023336 245.2053 236.6361 14.82660436531060
Epoch (UTC): 20 October 2014 19:20:34
Eccentricity: 0.0023336
inclination: 82.4862°
perigee height: 604 km
apogee height: 637 km
right ascension of ascending node: 35.2607°
argument of perigee: 245.2053°
revolutions per day: 14.82660436
mean anomaly at epoch: 236.6361°
orbit number at epoch: 53106

The dashed part of the orbit path shows where the satellite is in the earth's shadow,  

DLR